Location: ?
(35.3436°N, 139.3168°E)
Time: 00:01:45
(UTC+00:00)

ISS - Visible Passes

Search period start: 10 May 2021 00:00
Search period end: 20 May 2021 00:00
Orbit: 417 x 421 km, 51.6° (Epoch: 09 May)

Date Brightness Start Highest point End Pass type
(mag) Time Alt. Az. Time Alt. Az. Time Alt. Az.
11 May -0.9 18:46:52 10° NNW 18:49:28 20° NNE 18:52:03 10° E visible
12 May -0.5 17:59:56 10° N 18:01:50 14° NNE 18:03:43 10° ENE visible
13 May -0.1 17:13:44 10° NNE 17:14:08 10° NNE 17:14:33 10° NNE visible
13 May -2.9 18:48:15 10° NW 18:51:35 54° NE 18:54:52 10° ESE visible
14 May -3.7 11:29:10 10° SW 11:32:31 77° NW 11:33:58 31° NE visible
14 May-0.113:14:22NNE13:14:22NNE13:07:27WNWvisible
14 May -1.8 18:01:00 10° NNW 18:04:04 31° NE 18:07:07 10° E visible
15 May -3.7 10:41:50 10° SSW 10:45:06 54° SE 10:48:24 10° ENE visible
15 May -0.7 12:19:50 10° WNW 12:22:08 17° NNW 12:24:27 10° NNE visible
15 May -1.0 17:13:53 10° NNW 17:16:30 20° NNE 17:19:06 10° E visible
15 May -3.3 18:50:13 10° WNW 18:53:24 40° SW 18:56:36 10° SSE visible
16 May -1.4 11:31:41 10° W 11:34:32 25° NNW 11:37:24 10° NNE visible
16 May -0.5 16:26:57 10° N 16:28:52 14° NNE 16:30:45 10° ENE visible
16 May -3.9 18:02:39 10° NW 18:06:02 79° SW 18:09:23 10° SE visible
17 May -2.3 10:43:48 10° WSW 10:47:00 41° NW 10:50:12 10° NE visible
17 May -1.4 17:20:58 17° ESE 17:20:58 17° ESE 17:21:53 10° ESE visible
17 May -1.8 18:54:22 11° WSW 18:55:01 12° SW 18:56:21 10° SSW visible
18 May -0.4 11:35:25 10° NW 11:36:49 12° NNW 11:38:12 10° N visible
19 May -0.7 10:46:51 10° WNW 10:49:08 17° NNW 10:51:26 10° NNE visible
